Russellville, AR

5:59 AM CDT on August 17, 2017 (GMT -0500)
Russellville Regional

Weather History for KRUE - February, 2013

Change the Weather History Date:

Sunday, February 17, 2013

  Actual Average (KHOT) Record (KHOT)
Temperature  
Mean Temperature 48 °F -  
Max Temperature 64 °F 55 °F 76 °F (1948)
Min Temperature 33 °F 32 °F 13 °F (1980)
Degree Days  
Heating Degree Days 16    
Moisture  
Dew Point 26 °F    
Average Humidity 46    
Maximum Humidity 65    
Minimum Humidity 27    
Precipitation  
Precipitation 0.00 in - - ()
Sea Level Pressure  
Sea Level Pressure 30.07 in    
Wind  
Wind Speed 2 mph (SE)    
Max Wind Speed 6 mph    
Max Gust Speed -    
Visibility 10 miles    
Events      
Averages and records for this station are not official NWS values.
T = Trace of Precipitation, MM = Missing Value Source: NWS Daily Summary

Daily Weather History Graph

Daily Weather History Graph

Search for Another Location

Airport or City:

Trip Planner

Search our weather history database for the weather conditions in past years. The results will help you decide how hot, cold, wet, or windy it might be!

Date:

Astronomy

Feb. 17, 2013 Rise Set
Actual Time 6:56 AM CST 5:57 PM CST
Civil Twilight 6:30 AM CST 6:22 PM CST
Nautical Twilight 6:00 AM CST 6:52 PM CST
Astronomical Twilight 5:31 AM CST 7:22 PM CST
Moon 11:06 AM CST 12:36 AM CST
Length of Visible Light 11h 52m
Length of Day
11h 00m
Waxing Crescent, 49% of the Moon is Illuminated
Feb 17
Waxing Crescent
Feb 17
First Quarter
Feb 25
Full
Mar 4
Last Quarter
Mar 11
New

Hourly Weather History & Observations

Time (CST) Temp. Windchill Dew Point Humidity Pressure Visibility Wind Dir Wind Speed Gust Speed Precip Events Conditions
12:53 AM 37.0 °F - 26.1 °F 65% 30.18 in 10.0 mi Calm Calm - N/A   Overcast
1:53 AM 39.0 °F - 23.0 °F 53% 30.17 in 10.0 mi Calm Calm - N/A   Overcast
2:53 AM 37.9 °F - 24.1 °F 57% 30.17 in 10.0 mi Calm Calm - N/A   Overcast
3:53 AM 37.0 °F - 26.1 °F 65% 30.16 in 10.0 mi Calm Calm - N/A   Overcast
4:53 AM 36.0 °F - 25.0 °F 64% 30.15 in 10.0 mi Calm Calm - N/A   Overcast
5:53 AM 37.0 °F 33.3 °F 18.0 °F 46% 30.16 in 10.0 mi SE 4.6 mph - N/A   Overcast
6:53 AM 33.1 °F 30.0 °F 21.0 °F 61% 30.17 in 10.0 mi ESE 3.5 mph - N/A   Scattered Clouds
7:53 AM 37.9 °F 35.5 °F 18.0 °F 45% 30.17 in 10.0 mi SE 3.5 mph - N/A   Mostly Cloudy
8:53 AM 42.1 °F 40.2 °F 19.0 °F 40% 30.17 in 10.0 mi Variable 3.5 mph - N/A   Clear
9:53 AM 45.0 °F 42.6 °F 18.0 °F 34% 30.16 in 10.0 mi Variable 4.6 mph - N/A   Clear
10:53 AM 48.9 °F - 21.0 °F 33% 30.14 in 10.0 mi Variable 3.5 mph - N/A   Clear
11:53 AM 51.1 °F - 24.1 °F 35% 30.10 in 10.0 mi Variable 3.5 mph - N/A   Clear
12:53 PM 55.0 °F - 27.0 °F 34% 30.05 in 10.0 mi Variable 4.6 mph - N/A   Clear
1:53 PM 57.0 °F - 28.9 °F 34% 30.01 in 10.0 mi Variable 5.8 mph - N/A   Clear
2:53 PM 62.1 °F - 30.0 °F 30% 29.98 in 10.0 mi Variable 5.8 mph - N/A   Clear
3:53 PM 64.9 °F - 30.0 °F 27% 29.96 in 10.0 mi South 5.8 mph - N/A   Clear
4:53 PM 64.0 °F - 30.9 °F 29% 29.95 in 10.0 mi Variable 5.8 mph - N/A   Clear
5:53 PM 60.1 °F - 32.0 °F 35% 29.95 in 10.0 mi Variable 3.5 mph - N/A   Scattered Clouds
6:53 PM 50.0 °F - 35.1 °F 57% 29.96 in 10.0 mi Calm Calm - N/A   Clear
7:53 PM 48.9 °F - 35.1 °F 59% 29.96 in 10.0 mi ESE 4.6 mph - N/A   Clear
9:53 PM 52.0 °F - 34.0 °F 50% 29.95 in 10.0 mi East 4.6 mph - N/A   Clear
11:53 PM 51.1 °F - 35.1 °F 54% 29.93 in 10.0 mi Calm Calm - N/A   Clear